Content
SEND FEEDBACK

Daily
Averages
Monthly
Summary
United States of America

SOUTH LAKE TAHOE, CALIFORNIA


Home > North America > United States > California
Elevation: 6263 feet     Latitude: 38 53N     Longitude: 119 59W

WEATHER
 
SELECT A DAY
Number of Records: 178,607;   Date Range: 1/1/95 - 12/18/14
 
SHARE

PRINT THIS DATA

[ ← Previous Day ]
WEATHER ALMANAC - MARCH 27, 2013
[ Next Day → ]
[ °C ]   °F
Weather ElementAverageHighLow
Temperature43.4 °F55 °F (1:53 pm)30 °F (6:53 am)
Dewpoint31.2 °F37.4 °F (6:40 pm)25 °F (6:53 am)
Humidity65.3 %89 % (10:53 pm)35 % (1:53 pm)
Barometer29.94 in30.02 in (6:40 pm)29.88 in (2:53 am)
Wind Speed5.3 mph11.5 mph (11:53 am)
Wind Gust21.9 mph (11:53 am)
Weather ElementAverage
Visibility9.1 mi
Wind DirectionESE (100 °)

Weather ElementTotal
Precipitation0.04 in
Heating Degree Days22.5 (Base 65)
Averaged from 26 records on March 27, 2013
WEATHER CONDITIONS BREAKOUT
WIND DIRECTION BREAKOUT
WEATHER BY HOUR - MARCH 27, 2013
[ °C ]   °F
Local TimeTemperatureDewpointHumidityBarometerVisibilityWind DirectionWind SpeedGust SpeedPrecipitationEventsConditions
1:53 AM36.0 °F30.0 °F79 %29.91 in10.0 miCalmClear
2:53 AM42.1 °F30.0 °F62 %29.88 in10.0 miSSW (200°)9.2 mphMostly Cloudy
3:53 AM42.1 °F28.9 °F60 %29.88 in10.0 miSSW (210°)8.1 mphScattered Clouds
4:53 AM33.1 °F27.0 °F78 %29.92 in10.0 miCalmClear
5:53 AM30.9 °F27.0 °F85 %29.93 in10.0 miCalmClear
6:53 AM30.0 °F25.0 °F82 %29.94 in10.0 miCalmClear
7:53 AM39.9 °F28.9 °F65 %29.92 in10.0 miSSW (200°)9.2 mphClear
8:53 AM44.1 °F28.0 °F53 %29.92 in10.0 miSSW (200°)9.2 mphClear
9:53 AM46.9 °F28.0 °F48 %29.92 in10.0 miSouth (190°)6.9 mphMostly Cloudy
10:53 AM48.0 °F28.9 °F48 %29.92 in10.0 miSSW (200°)9.2 mphMostly Cloudy
11:53 AM51.1 °F27.0 °F39 %29.91 in10.0 miSSW (200°)11.5 mph21.9 mphScattered Clouds
12:53 PM53.1 °F27.0 °F37 %29.91 in10.0 miSSW (210°)11.5 mph16.1 mphClear
1:53 PM55.0 °F28.0 °F35 %29.90 in10.0 miVariable4.6 mphPartly Cloudy
2:53 PM55.0 °F28.9 °F37 %29.88 in10.0 miSSW (210°)8.1 mph20.7 mphMostly Cloudy
3:53 PM52.0 °F30.0 °F43 %29.90 in10.0 miSSW (200°)9.2 mph19.6 mphMostly Cloudy
4:53 PM50.0 °F32.0 °F50 %29.94 in10.0 miSSW (210°)6.9 mphOvercast
5:53 PM48.9 °F32.0 °F52 %29.95 in10.0 miVariable6.9 mphMostly Cloudy
6:40 PM44.6 °F37.4 °F76 %30.02 in4.0 miSouth (180°)11.5 mph0.00 inRainLight Rain
6:53 PM44.1 °F37.0 °F76 %29.99 in2.5 miSouth (190°)8.1 mph0.01 inRainRain
7:03 PM42.8 °F37.4 °F81 %30.02 in4.0 miVariable3.5 mph0.01 inRainLight Rain
7:05 PM42.8 °F37.4 °F81 %30.02 in5.0 miVariable3.5 mph0.01 inRainLight Rain
7:53 PM41.0 °F37.0 °F86 %29.96 in10.0 miCalm0.01 inMostly Cloudy
8:53 PM39.9 °F36.0 °F86 %29.97 in10.0 miCalmMostly Cloudy
9:53 PM37.9 °F34.0 °F86 %29.98 in10.0 miCalmScattered Clouds
10:53 PM37.9 °F35.1 °F89 %29.99 in10.0 miCalmPartly Cloudy
11:53 PM37.9 °F33.1 °F83 %29.96 in10.0 miCalmMostly Cloudy
Hourly data recorded from KTVL, located miles away from South Lake Tahoe, California







STORIES FROM OUR PARTNERS